Middle Georgia Regional Airport Airport (MCN)

 

Airport Diagram
Current Weather/Forecast (VFR Conditions)
METAR KMCN 020953Z AUTO 00000KT 10SM CLR 06/04 A3004 RMK AO2 SLP172 T00560039
TAF KMCN 020520Z 0206/0306 VRB03KT P6SM SCT250 FM021400 06005KT P6SM FEW250 FM021700 33005KT P6SM FEW250 FM030000 00000KT P6SM FEW250

All Charts
General
Chart Name Download
AIRPORT DIAGRAM
TAKEOFF MINIMUMS
ALTERNATE MINIMUMS

Approaches
Chart Name Download
ILS OR LOC RWY 05
ILS RWY 05 (SA CAT I - II)
RNAV (GPS) RWY 05
RNAV (GPS) RWY 14
RNAV (GPS) RWY 23
RNAV (GPS) RWY 32
VOR RWY 14
VOR RWY 23


Inbound Traffic (Arrivals)

No inbound traffic.


Outbound Traffic (Departures)

No outbound traffic.